Wind_Speed
10 10 10 10 10 9 9 9 10 10 10 11 11 12 12 12 12 12 13 13 13 13 13 13 13 14 14 14 14 14 14 14 14 14 14 14 15 14 14 14 14 14 13 12 12 12 13 13 14 14 15 14 14 14 13 13 13 14 15 14 14 11 7 7 9 11 15 18 18 18 19 22 24 25 27 26 22 20 17 14 15 18 19 17 15 17 20 21
12 12 12 11 11 11 11 12 12 12 13 13 14 14 14 14 14 15 15 15 15 15 15 15 16 16 16 17 17 16 16 16 16 16 16 16 16 16 15 15 14 13 12 12 12 13 14 14 14 14 15 16 16 16 15 14 14 15 16 17 17 14 11 12 13 15 19 22 22 21 21 23 24 25 27 28 25 23 20 16 15 17 19 18 16 18 22 24
14 13 13 13 13 13 14 14 14 14 15 15 15 16 16 16 16 16 16 16 17 17 17 17 17 18 18 18 19 19 17 17 18 18 18 17 15 14 13 13 13 13 14 15 15 16 16 16 16 16 16 17 18 18 17 16 17 17 19 20 19 17 16 15 14 15 19 23 24 23 23 24 23 24 26 27 28 27 22 18 17 18 19 17 15 16 23 28
15 15 15 15 15 15 16 16 16 16 17 17 17 17 17 17 17 17 17 17 18 18 18 19 19 19 19 19 20 20 19 19 19 18 18 15 13 13 14 15 16 16 17 17 17 17 17 17 17 16 17 17 17 19 20 19 19 19 22 23 20 18 19 18 17 18 21 25 25 23 24 25 24 25 27 28 30 31 25 20 19 20 21 21 20 21 25 30
16 16 16 16 17 17 17 18 18 18 18 18 18 18 18 18 18 18 18 18 18 19 19 20 20 20 20 21 21 21 20 18 17 18 18 17 17 17 18 19 19 19 19 18 18 18 17 16 16 16 17 17 15 17 20 20 20 21 23 23 22 21 23 22 21 21 24 27 27 25 25 27 27 27 28 30 33 31 26 22 19 19 22 24 25 26 27 29
18 18 18 19 19 19 19 19 19 19 19 19 19 19 18 19 19 19 19 19 19 20 20 21 21 21 21 22 21 21 20 16 16 19 20 20 20 19 20 20 19 19 18 18 17 17 17 16 17 17 18 18 17 17 17 16 18 24 26 24 24 24 25 25 24 26 28 29 29 27 27 27 28 28 27 29 32 31 28 25 21 19 21 24 26 27 28 28
20 20 21 21 21 21 21 21 21 20 20 20 20 20 19 19 19 20 20 20 20 21 21 21 21 22 22 23 22 22 22 17 15 20 21 20 20 20 19 18 17 17 16 16 17 17 17 18 18 17 19 20 19 17 14 14 17 24 30 29 27 26 26 26 26 28 30 30 29 29 28 26 27 28 27 28 29 28 28 25 22 20 21 22 25 25 26 27
22 22 22 22 22 22 22 22 21 21 21 21 21 21 21 21 21 21 21 21 21 22 22 22 22 22 22 23 23 23 23 18 14 17 20 19 19 19 18 17 17 17 17 18 18 18 19 19 19 19 20 21 20 17 15 19 22 25 30 30 29 30 29 27 28 30 31 31 30 31 29 25 23 25 28 27 25 25 26 24 22 22 23 24 25 26 27 27
23 23 23 23 23 23 23 23 22 22 22 22 22 22 22 22 22 22 22 22 22 22 22 22 22 22 23 23 24 25 22 18 15 16 18 18 19 19 19 19 19 19 19 20 19 20 20 19 18 19 22 21 20 20 20 23 26 26 29 30 30 32 31 29 30 30 30 31 31 32 30 24 20 23 27 25 23 25 27 26 24 23 24 25 27 27 28 28
23 23 24 24 24 24 24 24 24 24 24 23 23 23 23 23 23 22 22 22 22 23 23 23 23 23 24 23 25 26 21 18 18 18 18 19 20 20 21 21 21 22 22 22 21 21 21 19 20 22 23 23 23 23 23 25 28 29 30 32 32 33 32 31 31 30 30 30 28 29 28 24 22 25 28 25 25 27 28 29 27 26 25 25 27 28 28 29
24 24 24 24 24 24 24 24 24 24 24 24 24 24 24 23 23 23 23 23 23 23 24 24 24 24 25 25 27 26 22 21 20 19 19 19 20 20 21 22 22 23 23 23 23 22 22 22 23 23 22 24 25 24 25 27 29 30 31 33 32 32 32 32 32 31 29 28 26 26 28 28 26 26 29 28 28 29 30 30 29 28 27 26 27 27 27 28
25 25 25 25 25 25 24 25 25 25 25 25 25 24 24 24 24 24 24 24 24 24 24 24 24 25 25 27 26 24 23 23 22 20 21 20 20 21 22 23 23 23 24 24 25 24 23 23 24 24 23 26 27 26 27 28 28 30 32 33 33 34 34 32 30 29 27 24 24 24 25 28 27 27 30 30 28 28 30 32 31 31 31 30 30 29 29 28
25 25 25 25 25 25 25 25 25 25 24 24 25 24 24 24 24 24 24 24 24 23 24 24 24 25 27 27 25 24 25 24 24 23 22 22 22 23 23 24 24 24 24 24 24 23 21 22 23 24 24 26 27 26 28 28 28 32 32 33 34 34 34 30 27 26 23 20 22 23 24 25 27 29 29 27 27 28 30 32 33 33 32 32 32 31 30 28
26 26 26 26 26 26 26 26 25 25 25 25 25 25 25 25 25 25 25 24 24 24 24 25 25 26 28 28 26 27 27 26 27 26 24 24 24 24 24 24 24 23 23 22 21 21 21 21 22 23 23 24 25 25 29 29 28 30 31 29 28 29 32 29 22 21 21 21 22 21 23 25 28 32 28 25 28 31 33 34 33 32 31 31 32 31 29 27
27 27 27 27 27 27 27 27 27 27 26 26 26 26 26 26 26 27 27 26 27 27 27 27 27 29 30 30 28 29 29 29 28 27 25 24 22 22 22 22 23 23 24 24 23 22 21 20 21 21 20 21 23 25 28 27 26 27 27 25 24 25 28 25 17 17 19 21 20 19 22 25 28 32 31 30 32 32 32 32 31 30 29 29 30 30 29 26
28 28 28 28 28 28 28 28 28 28 28 28 28 28 28 28 29 29 29 28 28 28 28 29 28 29 31 30 28 29 29 28 27 26 26 25 25 25 24 24 25 25 25 24 22 19 19 20 20 21 20 20 23 26 25 23 24 26 24 25 24 23 24 20 14 13 16 20 23 24 26 28 30 31 32 34 34 32 31 30 27 25 24 25 25 24 23 22
27 28 28 28 28 29 29 29 29 29 29 29 29 29 29 29 30 29 29 29 29 29 29 29 28 30 30 28 29 29 29 29 29 27 26 25 25 24 22 21 20 20 21 20 19 20 22 24 25 24 23 22 23 24 20 18 22 24 22 22 22 21 21 20 15 12 16 23 27 29 31 33 33 29 29 34 36 33 30 28 25 22 22 20 17 17 19 19
26 26 26 27 27 28 28 28 29 29 29 29 29 29 29 29 29 29 29 29 28 28 28 28 27 28 26 24 25 26 25 26 25 23 22 21 22 21 21 21 21 21 23 24 26 28 28 28 28 25 24 25 25 25 23 22 25 24 22 23 24 24 24 24 24 23 26 31 31 32 33 33 31 29 31 34 34 30 27 26 23 19 18 15 14 17 19 22
25 25 25 25 26 26 27 27 27 27 28 28 28 27 28 28 28 28 29 28 27 27 26 26 26 25 22 21 23 23 24 25 25 24 24 25 26 28 28 28 29 29 29 31 31 30 29 28 27 26 26 26 25 25 27 26 25 24 24 25 26 27 27 27 29 30 31 32 32 30 32 32 30 32 35 34 28 23 23 22 17 12 11 14 16 20 21 24
25 25 25 25 25 25 25 26 26 26 27 27 27 27 27 28 27 28 30 28 27 26 25 26 27 28 25 25 28 28 27 29 30 29 29 30 30 31 32 32 32 31 31 32 30 29 29 28 28 29 29 26 24 23 23 23 23 23 24 25 26 29 30 29 31 31 28 30 30 28 30 31 31 34 34 26 17 16 19 14 7 7 13 17 20 22 25 28
25 25 25 25 25 25 25 25 25 25 26 26 27 27 28 28 27 29 31 30 29 28 27 27 27 30 28 28 31 29 28 31 31 30 30 31 32 32 34 34 33 33 32 28 25 26 28 29 30 30 27 25 24 22 20 22 25 26 27 30 31 32 32 33 32 28 23 25 27 25 27 29 33 34 25 13 11 13 11 5 9 15 18 20 23 26 30 34
25 25 25 26 26 26 26 26 25 25 26 26 27 27 28 28 28 30 32 33 32 29 30 29 29 31 29 29 34 31 29 32 32 32 31 31 33 34 36 35 33 34 29 22 21 24 26 28 28 23 18 19 21 21 21 22 25 29 30 32 34 32 32 31 25 18 15 18 23 24 27 31 31 25 10 2 5 7 4 8 20 24 23 25 30 34 37 39
27 28 28 28 28 27 27 26 26 26 26 26 26 27 27 28 29 30 32 35 35 32 33 33 32 33 31 32 36 33 33 34 33 35 33 32 35 34 34 35 33 31 26 20 22 24 25 22 17 12 12 17 19 19 19 21 25 27 28 29 30 27 26 24 19 15 17 21 24 27 29 29 23 11 1 5 3 7 11 19 26 24 23 29 34 36 38 38
29 29 29 29 29 29 28 28 28 27 27 27 27 27 28 28 29 30 32 35 38 37 35 35 34 33 32 34 35 33 33 34 34 37 35 33 36 34 33 34 31 29 27 23 23 26 27 22 16 15 16 18 19 18 19 22 25 25 24 24 26 24 22 23 21 21 25 26 24 22 22 18 10 1 4 1 8 17 21 24 22 18 21 26 30 32 32 31
27 27 27 27 28 28 28 28 28 27 27 27 27 27 27 28 28 29 30 32 37 37 33 32 30 28 27 27 28 27 28 31 32 34 33 31 32 33 32 30 27 25 23 20 20 24 25 21 19 20 19 19 21 22 21 22 24 24 21 19 21 21 20 21 22 23 24 19 12 10 10 8 5 6 11 13 17 20 21 22 20 19 21 24 27 26 25 23
27 25 25 25 26 27 27 27 26 26 26 25 25 25 25 26 25 26 26 27 31 30 24 21 20 18 17 17 19 21 22 24 25 25 25 25 27 29 27 26 25 21 17 16 18 22 22 19 18 19 18 17 18 19 18 18 21 22 20 18 19 20 19 21 23 24 19 13 12 12 11 12 14 17 20 18 15 20 22 21 21 20 21 24 23 21 19 17
27 25 23 24 24 25 26 25 24 24 24 23 22 22 22 23 22 21 19 16 18 17 12 11 11 11 11 9 10 12 11 11 13 14 15 15 17 18 18 19 17 13 13 15 17 18 17 15 14 14 14 14 14 14 13 12 16 19 18 18 20 21 22 22 23 23 21 22 23 18 14 18 20 20 20 12 13 20 20 18 21 21 20 20 19 17 13 10
28 25 23 23 25 26 26 25 23 23 22 20 19 19 19 20 18 15 10 6 5 4 3 7 8 9 9 8 8 9 8 7 6 7 9 8 9 8 8 11 10 9 11 12 13 13 13 12 12 13 14 13 13 12 10 11 14 17 18 18 19 21 22 22 23 23 22 20 16 9 7 13 16 18 15 10 19 20 18 18 18 16 14 11 10 9 7 6
28 26 23 23 25 27 27 27 25 23 21 19 18 17 14 12 11 9 5 4 3 1 3 6 6 8 9 8 9 11 12 11 8 7 8 7 7 6 5 5 6 8 11 11 11 11 12 14 13 14 14 12 10 8 8 10 12 16 18 18 18 20 20 20 20 19 16 12 12 12 12 12 10 14 8 8 16 16 16 17 13 8 4 1 2 4 4 5
26 24 22 22 25 26 24 24 24 23 22 19 16 14 10 7 7 7 5 5 4 3 5 7 9 11 11 9 9 11 12 12 11 10 8 7 7 6 6 6 7 8 10 13 14 14 14 14 12 12 11 10 10 10 11 12 14 17 18 18 19 19 17 16 16 13 8 6 9 12 16 16 5 7 5 1 8 11 12 14 11 6 2 1 4 5 3 5
26 25 24 24 26 26 22 21 21 21 19 15 13 11 8 7 7 7 5 5 6 6 7 9 11 12 11 10 9 10 12 11 10 10 9 9 9 8 8 9 9 9 12 14 14 12 13 13 11 11 12 13 13 14 15 15 15 15 14 14 14 12 7 7 10 7 3 5 3 4 5 15 10 3 6 8 8 8 9 11 12 11 9 9 11 10 9 10
29 29 29 28 28 25 23 23 20 18 15 11 9 9 8 8 9 12 8 4 4 6 7 9 10 11 11 12 12 13 13 11 10 10 10 11 11 12 12 11 11 11 12 12 12 14 19 21 20 20 20 20 19 18 16 12 10 10 10 9 5 4 2 4 4 3 5 5 3 5 4 6 14 15 13 17 19 16 15 16 17 18 18 18 18 16 14 15
30 32 32 32 31 28 27 24 19 15 12 11 11 11 10 8 7 12 13 10 7 5 5 6 6 8 12 14 15 15 14 13 13 12 12 14 15 17 19 19 19 16 14 15 17 19 21 23 24 24 22 20 18 16 12 8 7 10 12 9 5 3 2 2 2 3 5 5 6 6 12 11 14 14 14 19 24 24 23 24 24 25 27 27 24 19 17 20
27 29 30 30 32 29 26 23 18 14 12 13 13 11 11 11 9 12 15 15 15 13 12 13 13 12 13 15 17 18 16 15 15 15 16 18 21 24 25 26 23 18 16 17 17 15 13 15 17 16 15 14 11 8 8 10 13 16 17 14 13 11 6 4 3 3 4 6 14 20 14 6 7 8 11 15 17 21 24 27 29 30 31 31 26 22 21 22
24 24 24 25 27 26 23 21 20 17 12 11 14 14 16 18 15 15 16 15 17 18 19 19 16 14 15 16 17 18 17 16 17 20 22 24 26 27 26 23 19 16 15 14 11 10 11 14 14 13 13 12 10 9 11 15 15 14 15 16 18 18 16 12 10 12 11 9 15 19 14 15 16 16 22 25 25 29 31 31 33 32 32 30 24 21 21 21
24 24 24 25 27 26 24 23 22 18 12 12 17 21 25 23 17 14 14 14 17 19 19 19 18 18 19 19 19 20 21 21 21 23 24 25 27 27 23 18 17 18 19 18 15 11 10 10 8 7 11 14 14 15 16 17 14 12 14 17 18 18 18 15 12 14 12 7 11 17 18 23 22 20 28 32 30 33 34 33 35 33 30 25 22 22 22 22
23 23 24 25 26 27 26 25 21 17 14 15 21 28 30 28 23 20 18 17 18 18 19 18 17 17 16 16 17 19 20 19 18 20 19 17 16 15 15 14 16 19 20 19 18 16 15 16 15 13 14 15 18 19 17 17 17 17 17 18 16 13 14 14 7 4 5 5 10 16 19 22 18 13 20 26 24 26 29 30 31 29 27 24 25 26 24 20
22 23 25 24 24 26 26 24 19 17 17 21 28 32 31 30 28 26 25 25 23 22 23 22 21 20 18 17 17 17 17 16 14 14 15 15 13 11 11 13 15 17 17 16 16 16 17 18 20 20 16 14 16 18 17 17 19 21 21 20 17 11 9 11 7 3 5 5 5 10 17 22 19 14 16 22 22 23 25 26 26 26 26 25 24 22 18 16
26 27 29 28 26 27 28 25 22 21 23 29 34 34 33 34 32 30 29 29 28 26 26 27 26 26 26 26 25 22 20 20 18 16 14 14 13 11 10 11 13 15 16 15 16 19 18 15 16 17 14 11 13 16 18 17 18 20 21 22 23 19 15 15 14 10 7 5 6 8 12 17 19 15 15 18 19 19 21 22 23 23 22 21 19 17 17 18
32 33 36 34 30 29 29 28 27 28 30 35 38 37 36 36 34 34 33 32 32 30 30 31 30 30 31 31 29 25 21 21 21 19 18 17 17 16 14 14 17 16 14 14 16 17 17 14 15 17 15 14 15 17 18 18 18 19 21 23 25 24 22 19 19 22 16 6 4 6 8 15 22 19 17 17 16 16 18 18 18 18 17 17 18 20 23 24
36 37 41 39 33 31 31 31 33 35 37 39 40 39 39 38 38 38 35 34 33 32 32 32 31 30 30 29 28 26 23 23 24 22 23 23 21 20 20 21 21 18 16 16 16 16 16 15 18 22 22 21 19 16 16 17 17 15 15 18 19 21 21 14 13 24 27 18 13 11 8 15 25 24 19 16 14 15 16 15 15 19 21 23 25 25 26 26
39 41 43 42 37 34 33 35 38 39 41 43 43 41 40 40 40 40 39 37 35 34 33 33 33 32 31 30 30 28 26 26 26 25 27 27 25 23 23 23 23 21 20 20 20 19 19 18 20 26 29 32 29 23 21 22 23 22 22 23 22 21 23 18 11 17 22 20 21 18 11 16 26 29 25 23 21 20 21 24 26 28 29 28 27 26 26 28
43 43 44 44 40 36 35 38 41 42 44 45 44 43 42 42 42 41 41 39 38 37 35 35 36 35 35 34 32 31 30 29 29 30 30 29 27 27 28 28 28 27 24 24 24 23 22 21 23 26 30 35 35 32 30 30 30 31 30 31 31 29 31 29 21 18 17 15 18 13 5 9 21 25 25 24 24 26 29 31 30 28 28 28 27 28 33 38
43 43 44 45 42 39 39 42 44 45 46 45 44 44 43 43 43 43 42 40 39 38 36 36 35 33 33 32 30 31 30 27 27 29 29 28 27 28 29 29 29 29 25 24 23 21 19 17 15 14 13 17 19 18 16 17 18 21 20 21 24 26 29 28 24 21 15 16 20 13 4 10 18 20 22 24 29 34 35 33 31 30 30 31 33 38 44 48
39 39 42 44 42 40 42 43 43 42 43 42 43 43 42 41 43 43 40 39 38 36 33 33 33 32 30 29 29 31 30 28 25 23 23 25 26 27 29 29 29 28 26 24 24 23 21 17 15 11 6 6 9 9 9 8 8 11 14 16 17 19 24 25 25 21 14 14 18 13 10 20 27 29 33 35 37 38 36 36 37 37 38 41 44 48 50 51
35 37 40 40 38 39 41 41 39 39 39 37 37 39 39 37 37 37 35 34 34 33 31 30 30 30 30 29 29 29 29 30 28 26 25 23 22 23 25 26 26 26 25 25 25 24 23 23 25 24 20 20 23 24 25 22 20 19 20 24 27 30 33 31 28 27 23 19 20 25 28 32 36 39 40 35 29 27 30 35 38 41 44 47 50 52 53 53
33 35 37 36 33 33 37 39 38 38 37 33 33 33 32 31 30 29 29 29 29 29 29 29 29 29 29 28 28 27 27 25 24 27 29 26 24 26 27 28 27 26 27 26 25 25 24 25 29 29 28 31 32 32 33 32 30 29 28 32 36 38 38 36 34 33 29 21 23 34 37 33 33 37 37 33 29 30 34 39 43 46 48 49 50 51 51 51
31 31 32 33 31 29 32 35 35 37 36 33 32 30 27 25 24 25 27 27 26 26 27 28 29 30 29 27 25 25 24 22 21 24 26 25 26 27 28 29 28 28 29 27 27 26 25 27 32 30 29 32 32 31 32 31 29 29 29 31 35 38 40 40 38 35 31 27 29 35 37 36 38 41 41 41 40 41 43 44 46 49 49 50 50 49 48 48
30 30 29 32 33 32 32 31 29 31 33 33 33 33 30 26 22 23 25 26 27 27 26 27 28 29 30 29 28 27 25 22 22 24 25 27 28 28 27 28 28 29 28 27 26 24 23 27 30 29 31 34 34 33 31 28 27 30 32 33 36 41 44 41 38 36 35 35 38 39 39 41 44 44 44 44 43 43 44 43 44 46 46 47 46 45 45 44
30 31 31 31 32 32 32 32 30 28 27 29 34 36 34 31 27 24 23 26 28 28 25 25 25 26 27 28 28 29 29 27 26 25 25 26 27 26 25 24 24 26 27 26 25 23 23 23 22 23 24 28 32 32 24 20 23 26 31 36 41 44 43 41 41 41 39 39 40 39 38 40 41 40 40 41 41 41 41 41 41 41 42 42 42 41 41 40
28 28 29 30 31 30 29 30 30 27 26 28 32 33 33 34 32 26 24 26 28 28 27 25 24 24 24 24 25 27 29 30 30 28 27 28 27 26 25 24 24 26 29 29 27 25 24 22 23 22 20 26 35 31 20 18 22 26 34 44 47 46 44 44 44 41 39 39 39 36 36 38 37 36 38 40 41 41 41 39 38 37 37 39 39 39 39 38
26 26 27 28 30 29 28 28 28 29 30 30 31 30 29 31 32 29 28 28 30 30 30 28 26 25 25 25 26 26 27 28 29 29 29 31 32 31 31 30 30 32 35 33 31 29 26 23 24 21 18 25 32 27 19 16 14 23 40 47 45 43 41 41 41 39 38 39 38 37 37 35 33 32 34 36 37 38 37 36 36 36 37 38 38 38 37 36
Wind_Direction
273 276 277 279 281 283 286 288 291 294 296 298 299 299 300 300 301 301 300 300 300 300 299 299 299 299 299 298 298 299 300 301 301 300 299 298 300 303 302 303 302 301 301 302 303 304 305 305 306 308 308 309 308 311 312 310 310 306 305 302 297 306 304 282 282 280 277 279 287 294 296 298 303 306 306 308 310 308 303 299 299 298 298 299 293 285 283 280
273 275 278 279 281 283 284 286 288 291 292 294 295 296 296 297 297 297 297 297 297 297 297 297 296 297 297 297 297 296 298 299 297 297 295 295 297 299 299 299 297 295 297 300 301 302 302 301 301 304 304 305 305 304 304 303 302 300 300 294 293 300 296 285 283 282 281 284 290 294 296 296 299 303 302 303 307 305 304 308 308 298 300 305 304 299 289 281
274 275 276 277 279 280 281 284 286 288 290 291 292 293 294 294 294 294 294 295 295 295 295 295 295 296 296 296 297 297 298 299 298 297 296 297 301 302 301 298 294 293 296 298 299 299 298 297 298 300 299 300 303 301 300 299 299 300 292 287 296 303 296 288 283 281 282 286 293 299 299 297 300 301 298 302 304 301 302 308 305 296 298 302 300 294 287 286
271 273 274 275 276 277 279 282 283 285 287 288 289 291 291 292 292 292 292 293 293 294 293 294 294 295 296 297 298 298 300 301 299 297 297 301 303 302 299 297 294 294 295 296 296 294 294 293 294 296 295 297 300 297 299 301 300 296 289 291 301 301 292 288 283 278 279 288 297 301 299 298 300 298 298 302 300 298 302 305 301 297 296 293 285 277 275 283
269 270 271 272 273 275 277 279 281 283 284 286 287 288 289 289 290 290 291 292 292 292 293 293 294 295 295 296 296 297 300 303 301 298 298 300 299 298 296 294 294 294 295 294 293 291 291 290 291 293 293 294 295 293 297 303 303 295 290 294 301 301 297 297 296 289 288 293 299 300 299 299 299 298 300 302 297 297 301 301 299 293 287 283 280 275 273 277
269 270 270 271 273 274 276 277 279 280 282 284 285 286 287 287 288 288 289 290 290 291 291 292 293 294 294 293 294 294 294 295 299 297 296 296 296 296 294 293 293 293 293 292 291 290 290 290 291 293 293 293 292 294 297 299 296 292 292 295 297 299 297 297 297 294 296 298 298 300 299 299 299 300 301 297 294 298 303 304 300 288 279 277 277 277 277 279
270 270 271 272 273 274 275 276 277 279 280 281 282 283 284 285 285 286 287 287 287 288 288 289 290 290 291 290 291 290 287 289 294 292 291 292 294 294 293 293 292 291 291 290 291 292 293 292 293 294 292 292 295 297 296 286 276 278 288 296 297 295 293 295 295 294 296 297 298 300 299 300 302 301 297 292 295 302 304 304 301 291 282 279 278 280 281 281
270 271 271 272 273 275 275 276 278 279 279 280 281 282 283 283 284 284 284 284 285 285 285 286 286 287 288 288 289 286 286 292 293 285 287 291 291 291 291 291 290 289 289 289 291 291 290 291 293 292 288 290 293 288 280 276 275 277 287 296 298 298 299 301 299 296 297 300 303 302 301 304 306 300 293 295 303 303 300 298 297 293 288 285 282 282 282 282
269 270 271 273 274 275 276 277 278 279 280 281 281 282 282 282 283 283 283 283 284 285 285 285 286 287 286 287 288 285 288 297 294 286 288 288 288 288 287 286 286 286 286 287 288 287 288 289 287 284 284 288 287 282 278 277 282 286 288 292 294 297 300 300 297 297 298 303 304 300 303 308 309 302 297 305 311 303 301 300 298 295 291 290 288 286 285 284
269 270 271 273 274 275 276 277 278 279 279 280 281 281 281 281 282 282 282 283 284 284 285 285 286 286 286 286 285 285 291 296 293 289 287 285 285 285 283 283 283 284 284 284 284 284 285 283 279 281 285 287 283 282 282 279 283 287 286 288 291 294 298 298 298 303 305 304 302 298 303 308 309 305 303 312 314 306 304 302 300 299 294 291 289 289 289 288
269 270 271 272 273 274 275 276 277 278 279 279 280 280 280 280 280 280 281 282 282 283 283 284 284 284 285 284 282 286 293 293 290 289 286 284 284 282 281 282 281 282 282 282 281 280 280 279 280 282 282 283 284 285 285 284 287 288 287 289 293 296 297 299 303 308 309 305 303 301 303 306 306 304 306 312 312 309 305 300 299 298 296 292 290 290 289 289
269 269 271 271 272 273 274 275 276 277 278 279 280 280 281 281 281 281 281 281 282 283 283 283 284 284 284 281 282 289 291 290 290 288 286 286 284 282 282 282 282 281 281 281 280 280 280 280 279 277 276 278 281 283 284 287 289 289 290 292 297 299 298 305 311 312 311 306 302 300 298 301 305 307 311 315 314 311 308 303 301 300 299 297 296 295 294 293
270 271 271 272 272 273 274 275 276 277 278 279 280 281 282 282 282 282 283 283 283 283 283 284 284 284 283 282 285 288 287 288 289 288 287 286 284 283 282 282 282 281 280 279 279 282 280 278 276 275 276 277 280 282 283 287 287 287 291 294 300 301 303 313 320 317 312 296 291 291 283 290 305 310 314 317 313 310 306 303 301 301 301 300 299 297 295 295
271 271 272 273 274 274 275 275 276 277 278 279 279 280 281 282 282 282 283 283 283 283 283 284 284 284 282 282 285 286 286 288 288 288 288 285 283 283 281 281 281 280 279 278 279 280 279 276 275 275 276 278 283 284 283 285 285 288 293 295 299 300 306 320 324 315 304 286 285 287 279 289 307 311 312 311 308 307 305 303 302 303 304 302 300 298 297 296
269 270 271 272 273 273 274 274 275 276 276 276 277 278 278 279 279 280 280 280 281 281 281 281 281 281 281 281 283 283 285 285 285 287 287 285 283 280 280 280 278 277 276 277 277 277 276 275 274 277 279 282 286 284 283 286 286 291 291 289 295 294 300 319 323 304 294 287 290 288 285 294 304 307 307 304 304 306 304 302 302 302 302 300 299 299 300 299
268 269 270 270 271 271 272 273 273 274 274 275 275 276 276 277 277 277 278 279 279 279 279 279 279 279 280 281 282 281 281 282 283 283 283 284 282 280 278 275 274 273 273 273 272 271 272 275 276 278 279 282 285 285 287 289 287 290 285 284 295 294 296 310 313 299 292 294 299 298 296 297 300 305 307 306 308 311 308 305 304 302 299 296 298 303 307 308
268 269 269 270 270 271 272 272 273 273 274 274 275 275 276 276 277 277 277 277 276 277 276 276 277 277 277 279 279 278 278 280 281 281 281 281 281 279 276 271 270 269 268 266 266 268 272 276 278 277 278 279 280 280 279 278 282 288 288 287 291 292 293 295 290 286 290 296 301 301 299 299 302 306 306 306 310 313 311 310 309 304 298 298 309 316 315 309
268 269 270 270 271 272 272 273 273 274 274 275 275 275 276 276 276 275 275 275 274 274 275 275 274 275 276 277 276 275 277 278 278 278 279 279 278 275 273 272 270 267 267 267 268 272 274 277 277 274 274 274 274 272 267 272 281 286 287 287 287 286 286 286 282 279 286 291 293 295 293 293 297 296 297 305 310 311 307 308 307 296 293 307 320 312 300 294
267 268 269 270 271 271 272 273 274 274 275 275 275 275 276 275 275 275 274 273 273 274 275 274 272 271 272 273 272 271 273 275 275 275 276 277 276 275 275 273 272 271 270 271 272 273 274 275 271 268 272 276 280 279 278 285 290 286 284 284 285 285 283 284 285 287 293 293 290 289 287 289 290 290 301 311 314 311 302 299 291 284 313 324 310 298 290 289
267 268 268 269 269 270 271 271 273 274 274 275 275 275 276 276 277 277 275 273 273 273 272 272 274 273 271 270 268 269 273 274 274 275 275 275 274 275 274 272 273 272 271 274 277 276 275 272 267 269 277 281 284 281 278 283 283 278 278 278 279 281 282 283 287 294 297 290 286 285 284 286 288 297 311 317 312 302 292 290 292 312 332 318 299 294 288 286
266 267 268 268 268 269 270 271 272 273 274 275 276 276 276 277 278 278 277 276 274 274 272 271 273 274 274 274 270 270 274 272 273 274 273 274 274 274 273 272 272 271 272 276 276 273 271 268 270 278 284 285 284 278 267 264 264 267 269 272 275 276 280 285 290 298 296 285 283 287 287 288 297 309 318 315 300 295 281 301 342 327 319 306 295 290 285 283
265 266 267 268 269 269 270 271 272 274 275 275 276 276 277 278 277 277 279 278 274 275 275 274 272 272 274 273 272 273 272 270 273 273 271 272 271 270 271 271 271 273 276 273 266 266 265 270 280 285 286 286 284 281 275 267 264 269 272 274 276 277 283 286 292 300 295 286 287 291 292 294 306 315 321 325 314 321 316 308 311 307 298 288 281 278 277 278
265 266 266 267 267 268 269 271 272 273 273 274 274 275 276 277 278 278 279 280 279 276 275 275 274 274 273 270 270 273 272 271 272 270 269 267 265 265 267 270 271 273 276 265 260 263 262 273 291 292 288 288 282 277 275 269 264 268 273 275 277 280 284 285 291 288 275 280 288 292 293 299 313 318 138 96 25 336 313 289 288 287 277 270 267 269 271 273
265 265 265 265 265 267 269 271 272 271 271 272 272 273 274 275 276 277 279 283 283 281 279 280 278 276 273 270 270 271 269 267 264 263 264 262 264 264 264 268 271 271 272 264 260 266 267 272 274 269 274 278 273 267 263 263 262 266 271 273 277 281 281 281 283 278 278 286 293 296 295 299 321 316 175 184 307 305 292 276 276 272 262 261 262 266 271 276
263 265 265 265 266 267 269 269 269 269 270 270 271 272 274 275 276 279 283 287 287 287 286 285 282 278 272 267 267 264 259 259 258 260 262 261 263 265 265 267 267 267 270 265 256 260 267 273 271 265 265 264 263 262 261 262 264 268 270 269 270 272 273 273 277 284 295 305 306 312 311 295 282 251 258 286 299 288 269 263 270 263 257 262 266 272 282 288
262 264 266 267 268 269 268 268 269 270 269 269 271 272 273 275 277 281 287 290 290 292 292 286 280 275 270 262 257 254 253 256 258 260 261 259 258 261 263 263 264 264 261 254 247 250 258 268 270 266 265 262 257 259 264 264 264 266 268 266 264 266 269 274 284 295 303 303 293 300 299 278 271 277 290 304 289 259 250 258 264 257 256 265 275 285 291 293
262 263 265 268 269 269 268 266 266 266 267 268 270 272 274 276 277 282 292 294 290 292 288 271 263 261 259 248 239 241 243 250 252 251 253 254 253 255 256 255 262 266 252 243 245 253 262 263 261 262 264 260 255 262 270 266 265 265 265 266 268 274 279 284 292 295 296 295 294 296 285 268 269 285 305 301 244 240 246 254 259 258 261 270 282 286 285 285
261 260 263 268 269 268 266 263 261 260 262 265 267 271 273 272 271 276 289 288 280 298 271 246 244 243 237 222 219 227 230 234 235 238 243 243 244 247 247 244 244 251 256 252 249 259 269 267 270 276 275 271 270 274 271 265 267 270 274 277 278 284 287 290 292 292 298 298 292 291 259 253 269 295 310 258 223 229 239 253 263 263 265 274 287 286 276 270
258 256 260 266 268 267 263 257 255 253 254 257 259 260 259 257 257 257 252 239 236 246 244 239 227 224 222 217 226 233 237 239 231 231 240 239 242 243 238 238 238 253 272 277 274 277 278 277 282 282 279 282 283 282 281 277 275 276 283 287 285 286 287 290 292 295 302 285 273 278 246 232 281 309 311 222 220 228 233 247 260 257 253 277 349 334 296 259
255 254 257 259 260 262 261 258 255 249 247 246 242 239 232 234 245 238 219 221 237 241 233 229 220 223 231 235 238 236 233 232 227 229 237 239 248 250 247 261 269 271 279 286 291 292 283 278 277 272 276 284 283 288 291 287 282 281 285 288 289 291 289 287 286 292 307 268 276 293 253 232 267 346 13 182 228 237 239 246 250 244 249 311 324 332 290 267
257 256 254 252 254 255 253 251 244 235 232 226 220 219 224 245 245 223 209 223 241 247 232 224 221 226 235 232 225 226 226 224 228 236 242 246 254 261 268 278 282 287 292 293 296 293 282 278 278 275 279 282 282 288 288 282 277 277 287 297 300 306 298 268 265 266 265 261 301 12 241 219 211 259 337 331 292 259 252 259 261 264 273 282 293 292 273 272
259 258 254 252 250 243 234 232 226 215 211 212 223 232 243 264 246 226 230 253 262 252 225 218 226 234 240 235 226 229 233 234 239 247 257 263 266 270 277 283 284 290 296 292 291 287 283 282 285 287 287 285 282 281 280 274 263 268 296 315 314 324 314 224 226 218 223 227 148 80 33 236 235 252 273 284 281 269 265 270 273 278 281 283 287 282 273 275
261 260 258 253 246 233 224 224 217 211 222 241 256 255 251 258 243 236 246 253 256 254 221 227 262 264 256 247 236 233 241 249 252 257 267 273 279 283 286 289 287 283 279 277 280 284 286 286 287 289 290 286 281 272 262 256 263 280 294 299 271 278 328 249 261 266 245 207 188 270 317 301 265 265 264 263 265 264 268 274 276 279 282 283 283 276 271 274
257 256 253 248 241 231 226 224 222 235 254 260 259 252 237 233 233 247 254 248 245 250 254 267 284 281 260 247 239 238 246 255 257 262 271 277 284 288 288 288 285 279 273 274 276 275 277 281 282 284 284 281 275 252 246 274 290 291 285 276 260 251 246 250 255 250 269 278 270 279 296 284 253 264 262 256 256 263 272 272 270 272 274 275 274 269 268 267
247 247 246 241 233 229 229 231 242 259 262 250 250 241 228 231 238 245 246 239 237 244 254 264 270 265 252 243 242 246 251 258 264 271 276 280 283 285 285 283 278 271 265 264 270 270 266 273 280 275 260 254 251 248 266 284 290 290 277 261 254 255 253 251 253 258 273 295 281 272 264 259 265 271 267 261 259 267 272 267 261 262 264 264 263 263 263 261
248 250 250 248 242 240 245 251 260 270 258 236 241 240 238 243 246 243 241 234 231 238 249 256 257 255 251 246 246 250 255 261 267 271 275 278 280 278 274 269 263 262 262 262 268 271 260 268 287 269 237 235 247 262 274 278 277 278 271 259 259 263 258 253 260 267 267 274 273 265 263 270 274 273 269 266 264 268 267 260 256 255 256 255 257 263 265 263
251 252 254 252 249 248 256 266 271 271 258 242 240 243 248 253 250 245 246 242 234 237 246 250 250 248 245 244 244 247 253 258 260 263 266 268 271 270 266 263 261 260 260 262 266 264 256 263 269 264 256 254 261 271 273 271 269 266 264 266 269 264 251 248 256 270 245 249 268 265 267 274 272 261 263 264 265 266 259 250 248 247 248 253 259 263 262 256
251 254 254 253 252 255 263 269 268 261 255 247 245 249 252 255 255 252 251 251 249 248 248 246 245 245 246 247 244 243 250 255 253 253 256 253 253 257 260 263 261 256 254 254 255 254 255 267 271 268 266 261 262 267 262 258 265 264 262 266 264 255 243 236 226 222 242 248 263 263 269 274 270 259 258 262 262 257 250 244 243 245 249 252 252 249 245 245
256 257 259 259 259 263 265 263 257 252 245 241 244 249 252 255 256 255 254 255 253 250 249 247 246 249 253 253 252 251 257 264 261 251 247 245 247 253 252 250 249 248 248 244 240 243 247 260 273 271 265 254 252 256 254 254 262 262 258 255 251 251 253 247 238 235 241 250 260 265 271 274 274 270 262 261 256 248 245 244 240 240 239 239 239 241 249 260
261 260 261 261 258 258 259 256 252 247 241 242 246 250 254 257 259 258 255 253 251 250 251 251 248 249 253 254 254 255 255 258 257 250 243 239 243 251 255 258 259 253 244 234 229 235 238 240 255 267 269 262 256 259 265 265 261 258 254 250 249 253 256 257 254 248 245 249 265 267 263 263 269 270 261 256 249 240 239 236 234 239 245 254 264 269 272 275
261 260 261 261 257 254 252 249 248 246 244 247 250 252 255 257 259 258 255 252 251 250 250 251 248 249 252 253 253 254 251 250 251 248 246 245 246 250 253 254 254 249 239 232 229 236 242 241 249 259 264 265 263 266 268 260 250 248 249 248 251 255 252 252 260 254 248 241 242 250 256 258 262 265 262 256 248 242 246 255 268 277 282 282 281 278 276 278
255 255 258 260 257 253 249 247 248 248 247 249 250 251 254 256 255 256 256 255 254 253 251 251 250 250 253 255 255 256 254 252 250 246 246 246 244 244 249 249 248 246 243 243 243 247 252 254 256 257 259 262 263 263 259 255 254 256 258 259 262 261 250 241 245 257 252 245 247 253 255 253 254 257 262 266 266 269 281 293 295 292 289 283 278 277 280 284
253 253 257 258 256 253 248 246 247 247 247 250 252 252 253 254 255 256 257 256 256 256 255 254 255 256 257 258 258 256 254 254 252 249 249 249 247 246 248 249 248 248 248 250 253 254 256 257 259 260 263 265 267 266 262 260 261 262 264 263 261 258 253 247 249 262 265 261 260 262 262 250 250 254 261 269 277 286 296 299 293 285 280 276 275 282 289 294
252 253 254 255 254 250 246 246 248 248 249 251 251 251 251 252 253 254 255 256 257 257 257 257 258 259 260 259 256 253 251 249 250 250 249 248 246 245 246 247 247 248 250 251 252 252 253 250 248 255 266 270 271 268 262 258 256 254 255 254 250 249 250 254 267 276 269 260 257 253 248 257 259 265 269 275 287 294 299 296 287 280 278 278 283 290 296 299
247 247 248 250 249 248 247 248 248 249 251 252 251 252 251 251 253 254 254 255 256 255 255 255 255 254 254 253 250 249 247 243 243 245 245 244 242 244 248 248 249 250 251 253 252 253 252 246 243 249 254 258 263 260 255 272 280 262 255 257 258 259 260 268 282 280 267 263 260 255 264 268 270 277 280 283 290 292 291 286 281 282 285 289 294 298 300 302
240 240 243 245 244 244 247 247 246 245 247 248 250 252 251 249 251 254 254 254 254 253 251 250 250 249 247 245 244 246 245 243 242 242 244 242 240 243 246 248 250 251 252 255 256 255 253 249 250 254 255 255 260 262 263 271 282 278 272 270 270 273 275 277 276 267 264 275 273 268 273 276 277 280 284 287 290 286 282 281 281 284 287 291 295 299 300 301
237 239 242 243 241 241 244 244 242 242 242 241 244 249 251 250 249 250 252 252 250 249 246 245 245 245 245 243 243 246 247 245 243 243 245 247 247 249 250 252 252 252 252 255 255 254 255 255 255 256 258 260 262 265 266 269 276 278 278 275 272 272 273 269 263 261 266 275 271 268 272 275 276 277 279 280 278 277 282 286 289 290 290 292 295 296 297 296
237 238 240 241 240 239 242 244 244 242 240 237 237 241 244 245 244 242 245 249 247 244 243 243 242 242 244 243 241 243 246 243 241 242 245 247 250 251 252 255 256 256 257 257 256 255 257 259 260 262 264 265 266 268 269 269 271 272 270 269 269 268 267 264 263 264 265 263 264 270 273 273 274 275 276 277 277 279 284 288 289 291 291 293 294 294 294 293
235 234 234 237 240 240 242 247 248 245 241 235 233 235 234 232 232 234 238 244 247 246 243 244 244 242 240 238 236 236 238 238 237 238 240 243 246 249 251 254 257 260 262 261 260 261 262 266 269 270 270 271 272 273 271 265 263 263 262 262 263 264 264 265 266 266 264 262 266 271 272 273 275 277 278 280 282 283 285 286 285 285 286 286 288 289 289 290
233 232 231 234 240 242 243 245 246 246 242 235 233 236 235 229 228 229 232 238 244 246 244 243 245 244 242 240 237 234 236 238 239 239 241 243 245 248 252 255 259 263 266 268 270 270 269 269 271 270 270 273 275 275 271 264 263 266 266 266 265 264 265 266 267 268 269 270 271 272 272 273 277 280 281 283 284 284 284 282 280 279 279 280 283 286 287 287
234 234 235 236 239 242 243 244 245 246 242 236 236 238 237 235 234 229 226 232 239 243 244 244 244 246 247 247 243 238 237 238 240 243 246 247 248 251 255 258 262 266 270 273 275 273 269 264 263 263 263 267 272 275 275 273 272 269 267 269 269 267 267 269 269 270 272 273 274 273 271 273 277 279 281 282 281 282 281 279 277 276 277 280 284 286 287 286
234 234 235 236 238 241 242 242 241 241 242 243 244 244 241 241 241 234 229 233 237 239 242 244 244 245 245 245 246 246 243 241 243 246 247 250 253 256 258 260 262 266 270 272 271 270 265 257 255 256 257 265 272 276 278 280 274 264 267 273 275 273 272 274 273 273 274 273 273 273 273 275 277 278 278 277 277 278 278 277 277 278 278 281 284 285 284 284
Height
3172 3173 3173 3173 3173 3173 3174 3174 3174 3174 3174 3174 3174 3174 3174 3174 3174 3174 3174 3174 3174 3174 3173 3173 3173 3173 3173 3173 3173 3173 3173 3173 3173 3172 3172 3172 3171 3172 3171 3171 3171 3171 3171 3170 3170 3170 3170 3170 3169 3169 3169 3169 3169 3168 3168 3168 3168 3167 3167 3167 3167 3168 3168 3169 3170 3169 3168 3167 3167 3166 3165 3163 3162 3162 3160 3160 3161 3161 3161 3162 3162 3160 3159 3159 3159 3158 3157 3156
3172 3172 3172 3172 3172 3173 3173 3173 3173 3173 3173 3173 3173 3173 3173 3173 3173 3173 3173 3173 3172 3172 3172 3172 3172 3172 3172 3172 3172 3172 3172 3172 3171 3171 3171 3171 3171 3170 3170 3170 3170 3170 3169 3169 3169 3169 3169 3168 3168 3168 3168 3167 3167 3167 3167 3167 3167 3167 3166 3165 3165 3166 3167 3168 3168 3167 3166 3165 3164 3164 3164 3163 3162 3161 3159 3158 3158 3158 3159 3160 3160 3158 3157 3157 3157 3156 3154 3153
3171 3171 3171 3171 3171 3172 3172 3172 3172 3172 3172 3172 3172 3172 3172 3172 3172 3172 3172 3172 3171 3171 3171 3171 3171 3171 3170 3170 3170 3170 3170 3170 3170 3169 3169 3169 3169 3169 3169 3169 3169 3169 3168 3168 3168 3168 3167 3167 3167 3167 3166 3166 3165 3165 3165 3165 3165 3165 3164 3163 3164 3165 3165 3166 3166 3166 3164 3163 3162 3162 3162 3161 3161 3160 3158 3156 3155 3155 3157 3158 3157 3156 3155 3155 3155 3154 3151 3150
3170 3170 3170 3170 3170 3170 3171 3171 3171 3171 3171 3171 3171 3171 3171 3171 3171 3171 3171 3171 3170 3170 3170 3170 3170 3169 3169 3169 3168 3168 3169 3168 3168 3168 3167 3168 3168 3168 3168 3168 3168 3167 3167 3167 3167 3166 3166 3166 3165 3165 3165 3164 3164 3163 3163 3163 3164 3163 3162 3161 3163 3164 3163 3163 3164 3164 3162 3161 3161 3161 3160 3159 3159 3158 3156 3155 3153 3152 3155 3156 3155 3154 3153 3152 3152 3152 3150 3148
3168 3169 3169 3169 3169 3169 3169 3169 3170 3170 3170 3170 3170 3170 3170 3170 3170 3169 3169 3169 3169 3169 3168 3168 3168 3168 3168 3167 3167 3167 3167 3167 3166 3166 3166 3166 3167 3167 3166 3166 3166 3166 3165 3165 3165 3165 3164 3164 3164 3164 3163 3163 3163 3162 3161 3162 3162 3161 3160 3160 3161 3161 3160 3161 3161 3161 3160 3159 3158 3159 3158 3157 3156 3156 3155 3153 3150 3149 3152 3153 3153 3152 3151 3150 3149 3148 3148 3147
3167 3167 3167 3167 3167 3168 3168 3168 3168 3168 3168 3168 3168 3168 3168 3168 3168 3168 3168 3168 3168 3167 3167 3167 3167 3166 3166 3165 3165 3165 3166 3166 3166 3165 3165 3165 3165 3165 3164 3164 3164 3164 3164 3163 3163 3163 3163 3163 3162 3162 3162 3161 3162 3161 3161 3161 3160 3158 3157 3159 3159 3159 3158 3158 3159 3158 3157 3156 3156 3156 3155 3155 3154 3153 3154 3151 3148 3148 3149 3149 3150 3149 3148 3147 3146 3145 3145 3145
3165 3165 3165 3165 3166 3166 3166 3166 3166 3166 3166 3167 3167 3167 3167 3167 3167 3167 3167 3166 3166 3166 3165 3165 3165 3165 3164 3164 3164 3163 3163 3165 3166 3164 3163 3163 3163 3163 3162 3162 3162 3162 3162 3162 3162 3162 3161 3161 3161 3161 3160 3159 3160 3160 3160 3161 3160 3157 3155 3157 3157 3157 3157 3157 3157 3156 3155 3154 3154 3153 3153 3153 3152 3151 3150 3148 3148 3147 3147 3146 3146 3146 3145 3145 3143 3143 3143 3142
3163 3163 3163 3164 3164 3164 3164 3164 3164 3164 3164 3165 3165 3165 3165 3165 3165 3165 3165 3165 3165 3164 3164 3164 3163 3163 3162 3162 3161 3161 3161 3163 3165 3163 3162 3162 3161 3161 3161 3161 3161 3160 3161 3160 3160 3160 3160 3160 3159 3159 3158 3158 3158 3159 3159 3158 3158 3156 3154 3154 3154 3154 3154 3155 3154 3153 3152 3151 3151 3150 3149 3150 3150 3148 3146 3146 3147 3146 3144 3144 3144 3143 3142 3142 3141 3141 3140 3139
3161 3161 3161 3162 3162 3162 3162 3162 3162 3162 3162 3162 3162 3163 3163 3163 3163 3163 3163 3163 3162 3162 3162 3161 3161 3161 3160 3160 3159 3158 3159 3161 3162 3161 3160 3160 3160 3159 3159 3159 3159 3159 3159 3158 3159 3158 3158 3158 3158 3157 3156 3157 3157 3157 3157 3156 3155 3154 3153 3152 3152 3151 3151 3152 3151 3150 3150 3149 3148 3146 3146 3148 3148 3145 3143 3145 3146 3143 3142 3141 3142 3141 3140 3139 3138 3138 3137 3137
3159 3159 3159 3159 3159 3159 3159 3160 3160 3160 3160 3160 3160 3161 3161 3161 3161 3161 3160 3160 3160 3160 3160 3159 3159 3159 3158 3158 3157 3155 3158 3159 3159 3159 3159 3158 3158 3157 3157 3157 3157 3156 3156 3156 3156 3156 3156 3156 3155 3155 3155 3154 3155 3154 3155 3154 3152 3152 3151 3150 3149 3149 3149 3149 3147 3147 3147 3146 3145 3143 3143 3145 3145 3143 3141 3143 3143 3141 3140 3139 3138 3138 3137 3137 3136 3135 3135 3134
3156 3156 3156 3156 3156 3157 3157 3157 3157 3158 3158 3158 3158 3158 3158 3159 3158 3158 3158 3158 3158 3158 3157 3157 3157 3156 3156 3155 3154 3154 3156 3156 3156 3157 3156 3156 3156 3155 3155 3155 3155 3154 3154 3154 3154 3154 3154 3154 3153 3153 3153 3152 3152 3152 3152 3151 3150 3149 3148 3146 3147 3147 3146 3146 3145 3145 3144 3141 3141 3140 3139 3141 3143 3141 3140 3141 3140 3139 3138 3137 3136 3135 3134 3134 3133 3133 3133 3132
3153 3153 3153 3153 3154 3154 3154 3154 3155 3155 3155 3155 3155 3156 3156 3156 3156 3156 3156 3156 3156 3155 3155 3155 3154 3154 3153 3152 3152 3153 3153 3153 3153 3154 3154 3154 3154 3153 3153 3152 3152 3152 3152 3151 3151 3152 3152 3152 3151 3151 3151 3150 3150 3150 3148 3148 3147 3146 3145 3143 3143 3143 3142 3143 3143 3141 3140 3138 3138 3138 3137 3138 3139 3139 3138 3137 3137 3136 3135 3133 3133 3132 3131 3130 3130 3129 3130 3130
3150 3150 3150 3151 3151 3151 3151 3151 3152 3152 3152 3152 3153 3153 3153 3153 3153 3153 3153 3153 3153 3153 3152 3152 3151 3151 3150 3149 3150 3151 3151 3150 3151 3151 3151 3151 3151 3151 3150 3150 3149 3149 3149 3149 3148 3149 3150 3149 3149 3149 3149 3148 3148 3148 3146 3146 3145 3143 3143 3141 3140 3139 3138 3141 3140 3138 3138 3136 3136 3137 3135 3135 3137 3137 3137 3136 3135 3134 3133 3131 3130 3129 3128 3127 3126 3126 3126 3127
3147 3147 3147 3148 3148 3148 3148 3149 3149 3149 3149 3149 3150 3150 3150 3150 3150 3150 3150 3150 3150 3150 3150 3150 3149 3148 3147 3147 3148 3148 3148 3148 3148 3148 3148 3148 3148 3148 3148 3147 3147 3147 3146 3146 3146 3146 3147 3147 3146 3146 3147 3146 3146 3145 3143 3143 3143 3141 3140 3139 3138 3137 3135 3138 3138 3137 3137 3135 3134 3135 3132 3132 3134 3135 3134 3135 3133 3131 3129 3128 3128 3126 3125 3124 3123 3122 3122 3123
3144 3144 3145 3145 3145 3145 3145 3146 3146 3146 3146 3147 3147 3147 3147 3147 3147 3148 3148 3148 3148 3148 3147 3147 3147 3146 3144 3145 3146 3146 3145 3145 3145 3145 3145 3145 3145 3145 3145 3145 3144 3144 3144 3144 3144 3144 3144 3144 3143 3144 3144 3145 3144 3143 3141 3140 3140 3140 3138 3136 3137 3136 3133 3136 3137 3136 3136 3133 3132 3133 3130 3129 3130 3131 3132 3132 3131 3130 3127 3125 3124 3123 3122 3121 3120 3119 3118 3119
3141 3142 3142 3142 3142 3142 3142 3143 3143 3143 3143 3144 3144 3144 3144 3144 3144 3144 3144 3145 3145 3145 3144 3144 3144 3143 3142 3143 3143 3143 3142 3142 3142 3142 3142 3142 3142 3142 3143 3142 3141 3141 3141 3141 3141 3141 3141 3141 3141 3142 3142 3143 3143 3140 3139 3138 3137 3139 3137 3134 3135 3135 3133 3135 3136 3136 3135 3132 3130 3129 3127 3126 3127 3128 3128 3127 3126 3126 3124 3122 3121 3120 3119 3118 3118 3117 3115 3115
3139 3139 3139 3139 3139 3139 3140 3140 3140 3140 3140 3141 3141 3141 3141 3141 3141 3141 3141 3141 3141 3142 3141 3141 3141 3140 3139 3140 3140 3139 3139 3140 3139 3139 3139 3139 3139 3139 3139 3139 3139 3139 3139 3139 3139 3139 3139 3138 3138 3139 3140 3141 3141 3139 3137 3136 3135 3136 3136 3134 3134 3134 3134 3134 3135 3135 3134 3132 3130 3127 3124 3122 3123 3124 3123 3122 3121 3121 3119 3118 3118 3117 3116 3115 3116 3114 3112 3111
3136 3136 3136 3136 3137 3137 3137 3137 3137 3137 3137 3138 3138 3138 3138 3138 3137 3138 3138 3138 3138 3138 3138 3138 3138 3137 3137 3137 3137 3136 3137 3137 3136 3137 3137 3137 3136 3136 3136 3136 3136 3137 3136 3136 3136 3136 3136 3136 3134 3135 3137 3138 3138 3138 3135 3134 3134 3135 3135 3133 3132 3133 3133 3132 3132 3133 3132 3130 3129 3127 3122 3121 3121 3121 3121 3120 3119 3117 3116 3115 3114 3113 3113 3114 3113 3111 3109 3106
3133 3133 3134 3134 3134 3134 3134 3134 3134 3134 3134 3134 3135 3135 3134 3134 3134 3134 3134 3134 3135 3135 3135 3134 3135 3135 3135 3135 3134 3134 3135 3134 3134 3134 3135 3134 3134 3133 3133 3133 3133 3134 3133 3132 3133 3132 3133 3133 3130 3130 3133 3134 3135 3135 3133 3132 3133 3133 3133 3132 3130 3129 3129 3130 3129 3130 3130 3126 3125 3124 3121 3119 3119 3118 3117 3117 3116 3114 3111 3110 3110 3110 3111 3111 3109 3107 3105 3102
3130 3131 3131 3131 3131 3131 3131 3131 3131 3131 3131 3131 3131 3132 3131 3130 3131 3130 3129 3130 3131 3132 3132 3131 3131 3131 3133 3133 3130 3131 3132 3131 3131 3131 3132 3131 3131 3131 3130 3129 3129 3130 3129 3129 3129 3129 3130 3129 3125 3126 3130 3131 3132 3132 3131 3131 3131 3131 3130 3129 3128 3126 3125 3126 3126 3126 3127 3122 3120 3120 3118 3116 3115 3114 3114 3112 3112 3110 3107 3107 3108 3109 3108 3106 3105 3104 3102 3099
3128 3128 3128 3128 3128 3128 3128 3128 3128 3129 3129 3129 3128 3128 3128 3127 3128 3126 3124 3126 3127 3128 3128 3129 3128 3127 3129 3129 3126 3128 3130 3127 3127 3128 3129 3128 3128 3127 3125 3125 3126 3125 3126 3127 3126 3125 3125 3124 3122 3124 3127 3128 3129 3129 3129 3129 3129 3128 3127 3125 3124 3123 3122 3122 3122 3122 3123 3120 3117 3117 3115 3113 3112 3111 3110 3109 3108 3107 3106 3107 3107 3107 3105 3102 3102 3100 3098 3095
3125 3125 3125 3125 3125 3125 3125 3125 3125 3126 3126 3126 3125 3125 3125 3125 3125 3123 3122 3121 3122 3125 3124 3125 3125 3123 3126 3125 3121 3125 3125 3123 3124 3124 3125 3125 3124 3123 3121 3121 3122 3121 3123 3124 3122 3122 3121 3121 3122 3123 3124 3125 3125 3125 3126 3126 3125 3124 3123 3121 3119 3120 3119 3118 3119 3120 3119 3117 3114 3114 3111 3110 3110 3108 3107 3106 3106 3106 3107 3107 3105 3103 3103 3101 3099 3097 3094 3092
3122 3122 3122 3122 3122 3122 3122 3122 3123 3123 3123 3123 3123 3123 3123 3122 3121 3121 3119 3116 3117 3121 3120 3120 3121 3120 3121 3121 3117 3120 3120 3119 3120 3118 3120 3121 3119 3120 3118 3117 3119 3119 3120 3120 3120 3120 3118 3119 3121 3120 3121 3122 3122 3122 3123 3122 3121 3120 3120 3119 3117 3118 3117 3115 3117 3118 3116 3114 3112 3111 3108 3107 3108 3106 3105 3105 3105 3107 3107 3103 3101 3101 3101 3099 3096 3094 3091 3089
3118 3118 3118 3118 3119 3119 3119 3119 3120 3120 3120 3120 3120 3120 3120 3119 3119 3118 3117 3114 3111 3114 3116 3116 3116 3115 3116 3115 3114 3116 3116 3115 3115 3112 3115 3117 3115 3116 3116 3115 3115 3117 3117 3117 3117 3116 3115 3118 3120 3119 3119 3119 3119 3119 3120 3119 3118 3118 3118 3117 3116 3116 3117 3115 3114 3113 3112 3112 3111 3109 3106 3104 3106 3105 3104 3104 3104 3106 3103 3098 3097 3098 3098 3096 3093 3091 3090 3089
3115 3115 3115 3115 3115 3115 3116 3116 3116 3116 3116 3117 3117 3117 3117 3117 3116 3115 3115 3112 3107 3107 3111 3111 3111 3110 3110 3110 3110 3111 3111 3110 3110 3109 3110 3113 3112 3111 3112 3113 3112 3113 3114 3115 3115 3114 3113 3115 3116 3117 3117 3118 3117 3116 3117 3116 3115 3115 3116 3116 3115 3114 3114 3113 3112 3110 3110 3110 3109 3108 3106 3103 3103 3105 3103 3103 3103 3101 3097 3095 3096 3096 3094 3092 3091 3090 3090 3089
3111 3111 3111 3112 3112 3112 3113 3113 3113 3113 3113 3114 3114 3114 3115 3114 3114 3114 3114 3111 3104 3102 3106 3107 3106 3106 3105 3106 3106 3107 3107 3106 3107 3107 3108 3109 3109 3108 3109 3109 3109 3111 3112 3112 3113 3111 3111 3113 3113 3114 3114 3115 3114 3113 3114 3115 3113 3113 3113 3113 3113 3112 3112 3111 3110 3109 3108 3108 3107 3109 3108 3102 3099 3101 3101 3100 3099 3095 3092 3094 3094 3093 3092 3091 3090 3090 3089 3088
3108 3108 3109 3108 3109 3109 3109 3110 3111 3110 3110 3111 3112 3112 3113 3112 3113 3113 3113 3111 3104 3100 3102 3103 3103 3104 3103 3105 3105 3105 3105 3105 3105 3106 3105 3106 3106 3107 3107 3107 3108 3108 3109 3110 3110 3109 3109 3111 3111 3111 3112 3112 3112 3111 3112 3112 3111 3110 3110 3110 3110 3109 3109 3108 3108 3108 3106 3105 3104 3105 3107 3100 3094 3095 3096 3095 3094 3091 3091 3093 3091 3090 3090 3090 3089 3088 3087 3087
3104 3105 3106 3106 3106 3106 3106 3107 3107 3108 3108 3109 3109 3110 3110 3110 3111 3111 3112 3112 3104 3099 3101 3102 3102 3102 3103 3104 3104 3104 3104 3104 3105 3104 3104 3105 3105 3105 3106 3106 3106 3106 3106 3108 3108 3107 3108 3108 3109 3109 3110 3109 3110 3110 3110 3110 3109 3108 3107 3108 3108 3107 3107 3106 3105 3104 3104 3103 3100 3100 3103 3099 3091 3090 3091 3091 3090 3089 3090 3091 3090 3089 3089 3089 3089 3088 3087 3087
3101 3102 3103 3103 3103 3103 3103 3104 3105 3105 3106 3106 3107 3108 3108 3108 3108 3109 3112 3110 3101 3098 3100 3101 3102 3102 3102 3103 3103 3103 3103 3103 3104 3104 3104 3104 3104 3105 3105 3105 3105 3105 3105 3105 3106 3106 3106 3106 3107 3107 3107 3107 3107 3108 3109 3109 3108 3106 3106 3106 3106 3105 3104 3104 3103 3102 3102 3100 3097 3097 3098 3096 3090 3088 3088 3088 3087 3088 3089 3089 3089 3089 3088 3088 3088 3088 3087 3087
3097 3098 3100 3101 3100 3100 3101 3101 3102 3103 3103 3104 3105 3105 3105 3105 3106 3108 3109 3105 3098 3098 3100 3100 3101 3101 3101 3102 3102 3102 3102 3102 3103 3103 3103 3103 3103 3104 3104 3104 3104 3104 3104 3103 3103 3104 3103 3103 3104 3104 3105 3105 3105 3106 3106 3107 3106 3105 3104 3103 3103 3102 3101 3102 3101 3100 3101 3098 3094 3093 3093 3093 3092 3089 3087 3087 3087 3088 3088 3088 3088 3088 3088 3087 3087 3087 3087 3087
3093 3095 3096 3097 3098 3098 3098 3098 3099 3099 3100 3101 3102 3102 3102 3103 3104 3105 3103 3099 3097 3098 3098 3098 3100 3100 3100 3101 3101 3101 3101 3101 3102 3102 3102 3102 3103 3103 3103 3103 3103 3103 3102 3102 3101 3101 3100 3101 3101 3102 3103 3103 3103 3104 3104 3104 3103 3103 3102 3101 3101 3100 3099 3099 3100 3101 3101 3096 3093 3091 3090 3092 3092 3088 3087 3087 3086 3087 3087 3087 3087 3087 3086 3086 3086 3086 3085 3085
3090 3091 3092 3093 3094 3094 3094 3094 3095 3096 3097 3098 3098 3099 3100 3101 3101 3099 3097 3098 3098 3097 3096 3097 3098 3099 3100 3100 3100 3100 3100 3100 3101 3100 3101 3101 3101 3101 3102 3102 3102 3102 3101 3100 3100 3099 3097 3098 3099 3099 3100 3100 3100 3100 3101 3101 3101 3101 3101 3101 3100 3099 3099 3099 3099 3098 3097 3093 3091 3090 3091 3092 3090 3087 3087 3087 3085 3085 3085 3085 3085 3085 3084 3084 3084 3084 3083 3083
3086 3087 3088 3089 3090 3090 3089 3091 3093 3094 3094 3095 3096 3096 3098 3099 3096 3093 3095 3098 3097 3095 3095 3097 3097 3099 3099 3099 3099 3099 3099 3099 3099 3099 3099 3099 3099 3099 3099 3100 3100 3101 3100 3099 3098 3097 3095 3095 3096 3096 3096 3097 3097 3097 3098 3099 3099 3100 3099 3100 3100 3099 3100 3099 3097 3095 3093 3091 3089 3089 3090 3089 3086 3085 3085 3084 3083 3082 3083 3083 3083 3083 3083 3082 3082 3082 3081 3081
3082 3083 3084 3085 3086 3086 3086 3088 3090 3091 3091 3092 3093 3094 3095 3094 3091 3090 3093 3095 3094 3094 3094 3095 3095 3097 3097 3098 3098 3098 3098 3098 3098 3098 3098 3097 3097 3097 3097 3097 3098 3098 3098 3097 3096 3095 3094 3092 3093 3094 3094 3095 3095 3096 3097 3097 3097 3097 3097 3098 3098 3098 3100 3098 3095 3093 3091 3090 3088 3088 3089 3085 3082 3082 3082 3082 3082 3080 3081 3082 3081 3080 3080 3080 3079 3079 3078 3078
3079 3080 3081 3082 3083 3083 3085 3086 3087 3087 3088 3089 3090 3091 3089 3088 3087 3088 3090 3091 3092 3093 3092 3093 3093 3094 3095 3096 3096 3096 3097 3096 3096 3096 3096 3095 3095 3095 3095 3096 3095 3096 3096 3095 3094 3093 3091 3089 3089 3091 3092 3093 3094 3095 3096 3096 3096 3095 3095 3095 3095 3095 3096 3095 3093 3091 3091 3090 3086 3084 3083 3080 3080 3080 3078 3078 3078 3078 3078 3078 3077 3077 3076 3076 3075 3075 3075 3075
3075 3076 3078 3079 3080 3081 3082 3082 3083 3084 3085 3086 3087 3085 3082 3082 3084 3086 3087 3088 3090 3090 3091 3091 3092 3092 3092 3093 3094 3094 3094 3094 3094 3094 3093 3093 3093 3092 3093 3094 3093 3093 3093 3093 3093 3091 3090 3088 3087 3088 3089 3091 3092 3092 3094 3094 3094 3093 3093 3093 3092 3093 3094 3093 3091 3090 3091 3090 3083 3078 3077 3076 3077 3077 3073 3072 3073 3074 3074 3073 3073 3073 3072 3072 3072 3072 3072 3071
3072 3073 3074 3076 3077 3078 3078 3078 3080 3080 3081 3083 3082 3079 3077 3079 3081 3083 3084 3085 3086 3088 3089 3090 3089 3089 3089 3089 3090 3091 3091 3092 3092 3091 3091 3091 3090 3089 3090 3091 3091 3090 3090 3091 3091 3089 3088 3086 3085 3086 3087 3088 3089 3089 3090 3091 3092 3091 3091 3090 3091 3091 3091 3091 3091 3090 3090 3088 3079 3075 3074 3073 3074 3073 3068 3068 3069 3070 3069 3069 3069 3069 3068 3069 3068 3068 3068 3068
3069 3069 3070 3072 3074 3075 3075 3076 3076 3077 3079 3079 3076 3073 3074 3075 3077 3080 3082 3083 3084 3085 3086 3086 3086 3086 3086 3086 3087 3088 3088 3089 3089 3089 3088 3089 3088 3087 3087 3088 3087 3087 3088 3088 3088 3087 3086 3084 3082 3083 3084 3085 3086 3086 3087 3088 3088 3088 3088 3089 3089 3089 3088 3089 3090 3089 3088 3085 3078 3073 3072 3070 3070 3069 3066 3065 3065 3066 3067 3067 3067 3066 3066 3066 3065 3065 3065 3065
3066 3066 3066 3068 3071 3071 3071 3072 3073 3075 3075 3073 3070 3069 3070 3071 3073 3076 3078 3079 3080 3081 3081 3082 3082 3083 3082 3083 3084 3085 3085 3085 3086 3086 3085 3085 3085 3084 3084 3084 3084 3084 3084 3085 3085 3084 3084 3083 3080 3080 3082 3083 3083 3083 3083 3084 3085 3085 3086 3086 3086 3086 3085 3086 3086 3085 3083 3081 3077 3074 3070 3067 3066 3065 3064 3063 3063 3064 3065 3065 3064 3064 3063 3063 3062 3062 3062 3062
3062 3062 3061 3064 3068 3068 3068 3069 3070 3070 3068 3065 3065 3065 3066 3068 3070 3072 3074 3075 3076 3077 3077 3078 3078 3078 3078 3079 3080 3081 3082 3082 3082 3082 3082 3082 3082 3081 3081 3081 3081 3082 3082 3082 3082 3081 3082 3082 3079 3078 3079 3079 3080 3081 3081 3082 3082 3082 3083 3083 3082 3083 3083 3082 3081 3080 3079 3078 3076 3073 3068 3065 3064 3063 3061 3061 3062 3063 3063 3062 3062 3062 3062 3061 3061 3060 3060 3059
3058 3057 3055 3058 3063 3064 3065 3065 3065 3065 3063 3061 3061 3062 3064 3065 3066 3067 3069 3071 3072 3072 3073 3073 3074 3074 3074 3075 3076 3077 3078 3078 3078 3078 3077 3078 3079 3079 3078 3078 3078 3079 3079 3079 3079 3079 3079 3079 3077 3076 3076 3076 3077 3079 3079 3079 3079 3079 3079 3079 3079 3080 3080 3080 3077 3075 3075 3073 3072 3070 3065 3061 3062 3061 3059 3060 3061 3061 3061 3061 3062 3062 3061 3060 3059 3058 3057 3057
3053 3051 3050 3053 3057 3059 3061 3059 3059 3059 3058 3056 3057 3059 3061 3061 3062 3062 3064 3066 3067 3067 3068 3069 3069 3070 3070 3071 3072 3073 3074 3073 3074 3074 3073 3073 3075 3075 3074 3074 3075 3076 3076 3076 3076 3076 3076 3076 3075 3074 3073 3073 3074 3076 3076 3075 3076 3076 3076 3076 3077 3077 3077 3076 3072 3070 3070 3068 3067 3066 3061 3058 3060 3059 3058 3058 3059 3059 3059 3059 3060 3059 3059 3057 3056 3055 3054 3053
3046 3047 3047 3048 3051 3054 3055 3053 3053 3053 3051 3052 3054 3056 3057 3057 3058 3059 3059 3061 3063 3063 3064 3064 3065 3066 3066 3067 3068 3069 3070 3069 3068 3069 3069 3070 3071 3071 3070 3071 3071 3072 3073 3072 3072 3072 3073 3073 3072 3071 3070 3069 3070 3071 3071 3071 3072 3072 3071 3072 3073 3073 3073 3071 3068 3068 3067 3064 3064 3064 3059 3056 3057 3057 3057 3057 3056 3056 3056 3056 3056 3056 3055 3055 3054 3052 3051 3050
3041 3042 3042 3042 3044 3047 3047 3045 3046 3046 3046 3049 3050 3051 3052 3052 3053 3054 3055 3056 3057 3059 3059 3060 3061 3062 3062 3063 3064 3064 3065 3065 3064 3064 3065 3066 3066 3066 3066 3066 3067 3068 3068 3068 3069 3069 3069 3070 3069 3069 3069 3067 3067 3067 3066 3066 3068 3067 3067 3068 3068 3068 3069 3067 3065 3066 3064 3060 3061 3060 3056 3054 3055 3055 3055 3055 3054 3054 3054 3053 3053 3052 3051 3051 3050 3049 3048 3047
3036 3036 3035 3036 3038 3039 3038 3039 3041 3042 3043 3045 3045 3046 3048 3048 3047 3049 3051 3052 3053 3054 3055 3055 3056 3057 3058 3059 3059 3059 3061 3061 3060 3061 3061 3061 3062 3062 3062 3062 3063 3064 3064 3065 3065 3066 3066 3066 3067 3067 3067 3066 3065 3064 3064 3064 3065 3065 3065 3066 3066 3066 3066 3064 3063 3063 3060 3057 3058 3056 3052 3052 3054 3053 3053 3053 3052 3052 3051 3050 3049 3048 3046 3045 3045 3044 3043 3042
3029 3029 3029 3030 3032 3032 3032 3035 3037 3038 3039 3041 3041 3041 3043 3043 3044 3046 3047 3048 3049 3050 3050 3051 3051 3052 3053 3054 3054 3055 3056 3056 3057 3058 3057 3058 3058 3058 3059 3059 3059 3060 3061 3061 3062 3063 3063 3062 3063 3063 3063 3062 3061 3061 3062 3062 3062 3063 3063 3063 3063 3062 3062 3062 3060 3057 3056 3056 3055 3053 3051 3049 3050 3051 3050 3049 3049 3048 3047 3046 3045 3044 3042 3041 3040 3039 3038 3036
3024 3024 3024 3026 3027 3027 3028 3030 3031 3033 3035 3038 3037 3038 3039 3040 3041 3043 3043 3043 3045 3045 3046 3046 3047 3047 3049 3050 3051 3051 3052 3053 3053 3053 3054 3054 3054 3055 3055 3055 3056 3057 3057 3058 3058 3059 3059 3058 3059 3059 3058 3058 3058 3058 3059 3059 3058 3059 3059 3058 3058 3058 3058 3057 3053 3052 3055 3054 3048 3048 3050 3047 3046 3047 3047 3046 3045 3044 3043 3042 3040 3038 3037 3036 3036 3035 3033 3032
3020 3020 3020 3021 3022 3023 3023 3024 3027 3029 3032 3034 3034 3035 3036 3037 3039 3040 3039 3039 3041 3041 3042 3042 3042 3043 3045 3047 3048 3047 3048 3049 3049 3050 3050 3051 3050 3051 3051 3051 3052 3052 3053 3054 3055 3056 3056 3054 3054 3055 3054 3054 3054 3054 3055 3055 3055 3055 3055 3054 3053 3053 3051 3049 3048 3049 3053 3049 3042 3044 3046 3042 3041 3043 3042 3041 3041 3040 3039 3038 3036 3034 3032 3031 3030 3029 3028 3026
3016 3016 3017 3017 3017 3019 3020 3021 3024 3026 3028 3030 3031 3031 3032 3034 3036 3037 3037 3036 3036 3037 3038 3038 3038 3040 3041 3042 3043 3044 3045 3045 3045 3046 3047 3046 3046 3047 3047 3048 3048 3048 3049 3050 3050 3052 3052 3050 3050 3050 3049 3049 3050 3050 3050 3052 3051 3050 3050 3049 3048 3045 3043 3044 3044 3045 3045 3042 3039 3041 3040 3037 3037 3038 3037 3036 3036 3035 3035 3033 3032 3030 3027 3026 3026 3025 3023 3021
3011 3012 3013 3013 3014 3016 3018 3019 3021 3022 3024 3026 3026 3026 3028 3030 3032 3033 3034 3033 3032 3033 3034 3034 3035 3036 3037 3038 3039 3040 3041 3041 3042 3042 3043 3043 3043 3044 3044 3044 3045 3045 3045 3045 3046 3048 3048 3046 3046 3046 3045 3045 3046 3046 3047 3048 3047 3046 3045 3043 3040 3038 3038 3039 3038 3038 3038 3036 3035 3036 3034 3032 3032 3033 3032 3031 3031 3030 3029 3027 3026 3025 3023 3022 3021 3021 3019 3017
3008 3009 3010 3011 3012 3013 3015 3016 3018 3019 3020 3021 3020 3022 3024 3026 3027 3030 3031 3030 3030 3030 3030 3031 3031 3032 3033 3034 3035 3036 3037 3038 3038 3039 3040 3040 3040 3041 3041 3041 3042 3041 3041 3041 3042 3043 3044 3043 3043 3044 3043 3041 3042 3043 3043 3044 3045 3043 3039 3034 3031 3032 3033 3032 3032 3033 3033 3031 3030 3030 3028 3026 3027 3029 3028 3027 3025 3025 3024 3022 3021 3019 3018 3018 3018 3017 3015 3012
3005 3006 3008 3008 3009 3011 3012 3013 3015 3015 3015 3016 3017 3019 3021 3021 3023 3026 3026 3026 3026 3026 3027 3027 3028 3029 3030 3030 3031 3032 3033 3034 3035 3036 3037 3037 3037 3038 3038 3038 3038 3037 3037 3038 3038 3039 3040 3040 3040 3042 3041 3038 3039 3040 3040 3042 3042 3035 3028 3025 3026 3028 3027 3026 3027 3028 3028 3027 3025 3023 3021 3022 3023 3024 3023 3022 3020 3020 3019 3017 3016 3014 3014 3014 3014 3013 3010 3007